UKUBE-1

Last updated on Wed Jul 02 2025 00:03:44 GMT+0000 (Coordinated Universal Time)

1 40074U 14037F 25182.43143439 .00006330 00000+0 44228-3 0 9993 2 40074 98.3951 146.6523 0000255 115.1283 244.9967 15.05730602595630
UTC large
Height (km)
Speed (km/s)
/
Latitude / Longitude
Inclination (degrees)
Orbital Period (minutes)
Azimuth
Elevation
Range (km)
Doppler Factor

Next 0 passes for location: London (51.5072 / 0.1276)

Sorry there are no passes over London.